x

Port Stanley (45132) Wave Buoy

2:00am - Sat 2nd Aug 2014 All times are CDT. -5 hours from GMT.

  • Sig Wave height 0.3ft
  • Peak Period 4s
  • Wind
    7mph
  • Sea Temp 70°f
  • Air Temp 70°f
  • Sea Pressure 1018.6mb
  • Port Stanley
  • Port Stanley

More Historic Weather Station data

Upgrade to MSW Pro to gain access to the past 30 days of data for over 8000 Wavebouys and Weather Stations around the globe.

Join Pro

Comparision Forecast

View Surf forecast
   
Sat 08/02 2:00am 0.3ft 4s 7
mph
1018.6mb 70f 70f
1:00am 0.3ft 3s 4 7 mph 1018.8mb 70f 70f
12:00am 0.3ft 3s 4
mph
1019.1mb 70f 70f
Fri 08/01 11:00pm 0.3ft 3s 4 7 mph 1019.2mb 70f 70f
10:00pm 0.3ft 3s 4 7 mph 1019mb 70f 70f
9:00pm 0.3ft 3s 4
mph
1019.6mb 70f 70f
8:00pm 0.3ft 3s 7
mph
1019.3mb 71f 71f
7:00pm 0.7ft 3s 7 9 mph 1018.8mb 71f 71f
6:00pm 0.7ft 3s 4
mph
1018.6mb 71f 71f
5:00pm 0.7ft 3s 2
mph
1018.7mb 71f 72f
4:00pm 0.7ft 3s 4 7 mph 1018.7mb 71f 71f
3:00pm 0.7ft 3s 7 9 mph 1019mb 71f 71f
2:00pm 0.7ft 4s 9
mph
1019.3mb 70f 71f
1:00pm 0.7ft 3s 9
mph
1019.7mb 70f 70f
12:00pm 1ft 4s 9
mph
1019.7mb 70f 70f
11:00am 1ft 3s 4
mph
1019.8mb 70f 70f
10:00am 1ft 4s 4
mph
1019.8mb 69f 70f
9:00am 1ft 4s 2 4 mph 1019.5mb 69f 70f
8:00am 1ft 4s 2 4 mph 1019.5mb 68f 69f
7:00am 1.3ft 3s 4 7 mph 1019.5mb 68f 69f
6:00am 1.3ft 4s 7
mph
1018.8mb 68f 69f
5:00am 1.3ft 4s 7 9 mph 1018mb 68f 69f
4:00am 1.3ft 4s 9 11 mph 1017.7mb 68f 69f
3:00am 1.3ft 4s 7 9 mph 1017.4mb 68f 69f
2:00am 1.3ft 4s 4
mph
1017.3mb 68f 69f
1:00am 1.3ft 4s 4
mph
1017.4mb 68f 69f
12:00am 1.3ft 4s 7 9 mph 1017.5mb 68f 70f
Thu 07/31 11:00pm 1.3ft 4s 9 13 mph 1017.3mb 68f 72f
10:00pm 1.6ft 4s 2 4 mph 1017.3mb 68f 70f
9:00pm 1.6ft 4s 13 16 mph 1017mb 68f 70f
8:00pm 1.6ft 4s 11 13 mph 1016.8mb 68f 70f
7:00pm 2ft 4s 11 13 mph 1016.8mb 68f 70f
5:00pm 2ft 4s 16 18 mph 1016.9mb 68f 69f
4:00pm 2.5ft 4s 16 18 mph 1017mb 68f 69f
3:00pm 2ft 4s 16 18 mph 1017mb 68f 69f
2:00pm 1.6ft 4s 16 18 mph 1017.1mb 69f 68f
1:00pm 1.3ft 4s 13
mph
1017.2mb 68f 67f
12:00pm 1.6ft 4s 11 13 mph 1017.1mb 68f 67f
11:00am 1.6ft 4s 11
mph
1016.8mb 68f 66f
10:00am 1.6ft 5s 11 13 mph 1016.6mb 68f 65f
9:00am 1.6ft 4s 11 13 mph 1016.3mb 68f 64f
8:00am 1.6ft 4s 13 16 mph 1016.2mb 68f 64f
7:00am 1.6ft 4s 9 11 mph 1015.6mb 67f 65f
6:00am 1.6ft 4s 4 7 mph 1015.6mb 67f 64f
5:00am 1ft 3s 7
mph
1015.1mb 67f 65f
4:00am 1ft 3s 11
mph
1014.6mb 67f 66f
3:00am 1ft 3s 11 13 mph 1014.4mb 68f 66f
2:00am 0.7ft 3s 11 13 mph 1014.5mb 67f 66f
1:00am 0.7ft 3s 2
mph
1014.8mb 68f 66f
12:00am 1ft 3s 7 9 mph 1014.6mb 68f 65f
Wed 07/30 11:00pm 1ft 4s 7 9 mph 1015.1mb 68f 65f
10:00pm 1ft 4s 11 25 mph 1015.4mb 68f 66f
9:00pm 1.3ft 4s 4 7 mph 1015.5mb 68f 68f
8:00pm 1.3ft 3s 7
mph
1015.1mb 68f 68f
7:00pm 1.3ft 4s 4
mph
1015.2mb 68f 68f
6:00pm 1.3ft 4s 7 9 mph 1015mb 68f 68f
5:00pm 1.3ft 4s 9 11 mph 1014.7mb 69f 68f
4:00pm 1.3ft 4s 11 13 mph 1014.8mb 69f 68f
3:00pm 1.3ft 4s 13 16 mph 1014.7mb 69f 67f
2:00pm 1.3ft 4s 11 13 mph 1014.8mb 69f 67f
1:00pm 1.3ft 4s 9 13 mph 1015.1mb 68f 67f
12:00pm 1.3ft 4s 9 11 mph 1015.4mb 68f 66f
11:00am 1.3ft 4s 9
mph
1015.5mb 68f 65f
10:00am 1.3ft 4s 7 9 mph 1015.4mb 68f 64f
9:00am 1.3ft 4s 4
mph
1015.2mb 67f 64f
8:00am 1.6ft 5s 4 7 mph 1015.5mb 67f 63f
7:00am 2ft 5s 9
mph
1014.8mb 67f 64f
6:00am 2.5ft 5s 11 13 mph 1014.3mb 67f 64f
5:00am 2.5ft 5s 11 13 mph 1013.9mb 67f 64f
4:00am 3ft 5s 11 13 mph 1013.5mb 67f 65f
3:00am 2.5ft 5s 13
mph
1013.5mb 67f 66f
2:00am 2.5ft 5s 13 16 mph 1013.1mb 67f 67f
1:00am 3ft 5s 16 18 mph 1013.5mb 67f 68f
12:00am 3ft 5s 16 20 mph 1013.9mb 67f 68f
Tue 07/29 11:00pm 3ft 4s 18 22 mph 1013.5mb 67f 68f
10:00pm 2.5ft 4s 18 22 mph 1013.7mb 67f 68f
9:00pm 2.5ft 4s 18 20 mph 1014.1mb 67f 68f
8:00pm 3ft 4s 16 20 mph 1013.9mb 67f 68f
7:00pm 3ft 5s 18 22 mph 1014.1mb 67f 68f
6:00pm 3ft 4s 18 20 mph 1014.2mb 67f 67f
5:00pm 2.5ft 4s 18 22 mph 1014.3mb 68f 66f
4:00pm 2ft 4s 20 22 mph 1014.3mb 68f 66f
3:00pm 1.6ft 3s 18 22 mph 1014.4mb 68f 65f
2:00pm 1ft 3s 16 20 mph 1014.5mb 68f 65f
1:00pm 0.7ft 2s 13 16 mph 1014.8mb 68f 65f
12:00pm 0.7ft 2s 9 11 mph 1015.2mb 68f 64f
11:00am 0.7ft 3s 9 11 mph 1015.6mb 68f 63f
10:00am 1ft 3s 9 11 mph 1015.4mb 67f 62f
9:00am 1.3ft 3s 9 11 mph 1015.2mb 67f 62f